Regional Weather Roundup
Issued by NWS

Home | Current Version | Previous Version | Text Only | Print | Product List | Glossary Off
Versions: 1 2 3 4 5 6 7 8 9 10 11 12 13 14 15 16 17 18 19 20 21 22 23 24 25 26 27 28 29 30 31 32 33 34 35 36 37 38 39 40 41 42 43 44 45 46 47 48 49 50

353
ASUS44 KJAN 042003
RWRMS

MISSISSIPPI HOURLY WEATHER ROUNDUP
NATIONAL WEATHER SERVICE JACKSON MS
200 PM CST WED MAR 04 2015

NOTE: "FAIR: INDICATES FEW OR NO CLOUDS BELOW 12,000 FEET WITH NO
SIGNIFICANT WEATHER AND/OR OBSTRUCTIONS TO VISIBILITY.

MSZ001>002-007>008-010>013-018>021-025>028-034>036-042100-
NORTHWEST MISSISSIPPI

CITY           SKY/WX    TMP DP  RH WIND       PRES   REMARKS
CLARKSDALE     CLOUDY    39  39 100 N32G38    29.95S VSB 1   WCI  27
CLEVELAND      CLOUDY    44  44 100 N20G29    29.92R
GREENWOOD      PTSUNNY   79  63  57 W16G25    29.81F
GREENVILLE     CLOUDY    48  45  89 N24       29.89R
OXFORD         CLOUDY    46  45  93 N8G20     29.91R FOG
TUNICA         RAIN      37  36  93 N22G31    29.98R WCI  27
$$

MSZ003>006-009-014>017-022>024-029>033-037>039-042100-
NORTHEAST MISSISSIPPI

CITY           SKY/WX    TMP DP  RH WIND       PRES   REMARKS
COLUMBUS AFB   NOT AVBL
CORINTH        HVY RAIN  48  45  87 N13G20    29.90R
GOLDN TRIANGLE PTSUNNY   79  64  61 S16G23    29.83F
STARKVILLE     MOCLDY    79  61  53 S15G23    29.83F
TUPELO         MOSUNNY   75  67  76 NW6       29.80F
$$

MSZ040-058-042100-
CENTRAL MISSISSIPPI

CITY           SKY/WX    TMP DP  RH WIND       PRES   REMARKS
JACKSON INTL   PTSUNNY   81  63  54 S17G26    29.87F
JACKSON HAWKNS PTSUNNY   81  62  52 S15G23    29.87F
MERIDIAN KEY   NOT AVBL
MERIDIAN NAS   MOSUNNY   81  63  54 SW9G24    29.89F
VICKSBURG      PTSUNNY   80  63  55 SW10G22   29.86F
$$

MSZ059>079-042100-
SOUTH MISSISSIPPI

CITY           SKY/WX    TMP DP  RH WIND       PRES   REMARKS
BROOKHAVEN     FAIR      79  73  83 S13G22    29.91F
HATTIESBURG    MOSUNNY   81  67  62 S14G24    29.92F
MCCOMB         MOSUNNY   80  63  55 SW13G18   29.90F
NATCHEZ        NOT AVBL
PINE BELT      MOSUNNY   81  66  61 S14G20    29.92F
$$

MSZ080>082-042100-
COASTAL MISSISSIPPI

CITY           SKY/WX    TMP DP  RH WIND       PRES   REMARKS
BAY ST LOUIS   PTSUNNY   77  66  69 S10       29.94F
BILOXI         PTSUNNY   71  69  92 S13G20    29.95F
PASCAGOULA     CLOUDY    77  69  76 S15G21    29.96F
GULFPORT       RAIN      69  67  93 S6        29.96F FOG
$$



USA.gov is the U.S. government's official web portal to all federal, state and local government web resources and services.